[TLELIST] Archives

 

[list_settings.list_name] Current TLEs

April 8th 2013 PDT

HST 1 20580U 90037B 13098.11432291 .00002609 00000-0 17484-3 0 2120 2 20580 028.4711 012.1383 0003156 327.1063 181.5147 15.03439690 59141 ISS (ZARYA) 1 25544U 98067A 13098.48797311 .00012787 00000-0 21485-3 0 5704 2 25544 051.6462 094.2782 0010856 118.9820 327.9558 15.52091318823880 CXO 1 25867U 99040B 13099.15470113 -.00000227 00000-0 00000+0 0 8859 2 25867 074.9891 343.8144 8617774 277.7927 000.0930 00.37803582 10274 ____________________________________________________________________ These 2-Line ...Continue Reading

[list_settings.list_name] Current TLEs

April 7th 2013 PDT

HST 1 20580U 90037B 13096.25224170 .00002447 00000-0 16326-3 0 2111 2 20580 028.4709 024.3361 0003161 306.9642 183.5273 15.03430102 58862 ISS (ZARYA) 1 25544U 98067A 13097.40648051 .00012593 00000-0 21192-3 0 5622 2 25544 051.6460 099.6540 0010752 115.4130 044.7113 15.52062124823716 CXO 1 25867U 99040B 13099.15470113 -.00000227 00000-0 00000+0 0 8859 2 25867 074.9891 343.8144 8617774 277.7927 000.0930 00.37803582 10274 ____________________________________________________________________ These 2-Line ...Continue Reading

[list_settings.list_name] Current TLEs

April 6th 2013 PDT

HST 1 20580U 90037B 13095.18296479 .00002280 00000-0 15130-3 0 2109 2 20580 028.4710 031.3425 0003115 294.9223 156.8690 15.03425328 58694 ISS (ZARYA) 1 25544U 98067A 13096.30700257 .00011717 00000-0 19797-3 0 5554 2 25544 051.6460 105.1173 0010735 111.2370 021.6250 15.52030940823540 CXO 1 25867U 99040B 13096.50814809 .00000023 00000-0 00000+0 0 8830 2 25867 074.9703 343.9855 8623001 277.7983 359.8889 00.37805632 10263 ____________________________________________________________________ These 2-Line ...Continue Reading

[list_settings.list_name] Current TLEs

April 5th 2013 PDT

HST 1 20580U 90037B 13095.18296479 .00002280 00000-0 15130-3 0 2109 2 20580 028.4710 031.3425 0003115 294.9223 156.8690 15.03425328 58694 ISS (ZARYA) 1 25544U 98067A 13095.40716821 .00069476 00000-0 11279-2 0 5481 2 25544 051.6485 109.5897 0010576 108.7552 033.1618 15.52027703823408 CXO 1 25867U 99040B 13096.50702190 .00000024 00000-0 00000+0 0 8841 2 25867 074.9707 343.9858 8622929 277.7973 359.7354 00.37808866 10265 ____________________________________________________________________ These 2-Line ...Continue Reading

[list_settings.list_name] Current TLEs

April 4th 2013 PDT

HST 1 20580U 90037B 13094.11849729 .00002313 00000-0 15368-3 0 2091 2 20580 028.4710 038.3181 0003086 283.0604 156.1290 15.03421855 58532 ISS (ZARYA) 1 25544U 98067A 13094.44247144 .00029480 00000-0 48600-3 0 5425 2 25544 051.6453 114.3847 0010869 107.1922 041.2159 15.51989777823251 CXO 1 25867U 99040B 13096.50814809 .00000023 00000-0 00000+0 0 8830 2 25867 074.9703 343.9855 8623001 277.7983 359.8889 00.37805632 10263 ____________________________________________________________________ These 2-Line ...Continue Reading

[list_settings.list_name] Current TLEs

April 3rd 2013 PDT

HST 1 20580U 90037B 13092.33566420 .00002262 00000-0 15006-3 0 2088 2 20580 028.4710 050.0009 0003035 263.6797 227.2501 15.03414277 58279 ISS (ZARYA) 1 25544U 98067A 13093.41131030 .00009013 00000-0 15242-3 0 5333 2 25544 051.6459 119.5030 0012415 100.6898 042.1592 15.52325398823094 CXO 1 25867U 99040B 13093.86245999 .00000207 00000-0 00000+0 0 8827 2 25867 074.9492 344.1656 8626036 277.7865 359.8587 00.37801756 10257 ____________________________________________________________________ These 2-Line ...Continue Reading

[list_settings.list_name] Current TLEs

April 2nd 2013 PDT

HST 1 20580U 90037B 13091.20446725 .00002065 00000-0 13593-3 0 2077 2 20580 028.4712 057.4129 0003055 250.4380 226.0611 15.03409354 58100 ISS (ZARYA) 1 25544U 98067A 13092.24246381 .00008305 00000-0 14120-3 0 5279 2 25544 051.6458 125.3151 0012344 096.9649 349.6514 15.52300207822915 CXO 1 25867U 99040B 13093.86245999 .00000207 00000-0 00000+0 0 8827 2 25867 074.9492 344.1656 8626036 277.7865 359.8587 00.37801756 10257 ____________________________________________________________________ These 2-Line ...Continue Reading

[list_settings.list_name] Current TLEs

April 1st 2013 PDT

HST 1 20580U 90037B 13091.20446725 .00002065 00000-0 13593-3 0 2077 2 20580 028.4712 057.4129 0003055 250.4380 226.0611 15.03409354 58100 ISS (ZARYA) 1 25544U 98067A 13091.42681713 .00007806 00000-0 13327-3 0 5217 2 25544 051.6459 129.3699 0012356 094.1561 111.3985 15.52284170822784 CXO 1 25867U 99040B 13093.86245999 .00000207 00000-0 00000+0 0 8827 2 25867 074.9492 344.1656 8626036 277.7865 359.8587 00.37801756 10257 ____________________________________________________________________ These 2-Line ...Continue Reading

[list_settings.list_name] Current TLEs

March 31st 2013 PDT

HST 1 20580U 90037B 13090.13715441 .00001882 00000-0 12285-3 0 2064 2 20580 028.4708 064.4073 0002949 239.2063 209.3131 15.03406483 57936 ISS (ZARYA) 1 25544U 98067A 13090.24578256 .00006346 00000-0 10990-3 0 5157 2 25544 051.6465 135.2407 0012353 090.8633 350.4714 15.52259297822603 CXO 1 25867U 99040B 13091.21665846 .00000176 00000-0 00000+0 0 8804 2 25867 074.9338 344.3186 8627947 277.7775 359.8383 00.37802047 10245 ____________________________________________________________________ These 2-Line ...Continue Reading

[list_settings.list_name] Current TLEs

March 30th 2013 PDT

HST 1 20580U 90037B 13088.35511639 .00001515 00000-0 96471-4 0 2050 2 20580 028.4707 076.0839 0002985 218.2924 286.3589 15.03401801 57679 ISS (ZARYA) 1 25544U 98067A 13089.42699074 .00006059 00000-0 10533-3 0 5094 2 25544 051.6458 139.3108 0012285 087.9003 094.8982 15.52246286822475 CXO 1 25867U 99040B 13091.21665846 .00000176 00000-0 00000+0 0 8804 2 25867 074.9338 344.3186 8627947 277.7775 359.8383 00.37802047 10245 ____________________________________________________________________ These 2-Line ...Continue Reading
  • This mailing list is a public mailing list - anyone may join or leave, at any time.
  • This mailing list is announce-only.

International Space Station (ISS) / Hubble Space Telescope (HST) / Chandra X-Ray Observatory Orbital Data via EMAIL

Privacy Policy:

Private list